Pineville, WV

12:35 AM EDT on June 25, 2017 (GMT -0400)
Pineville

Weather History for KI16 - August, 2013

Change the Weather History Date:

Friday, August 30, 2013

  Actual Average (KBKW) Record (KBKW)
Temperature  
Mean Temperature 76 °F -  
Max Temperature 88 °F 78 °F 95 °F (1953)
Min Temperature 65 °F 57 °F 39 °F (1965)
Cooling Degree Days 12    
Growing Degree Days 26 (Base 50)    
Moisture  
Dew Point 70 °F    
Average Humidity 87    
Maximum Humidity 100    
Minimum Humidity 51    
Precipitation  
Precipitation 0.00 in - - ()
Sea Level Pressure  
Sea Level Pressure 30.08 in    
Wind  
Wind Speed - (North)    
Max Wind Speed -    
Max Gust Speed -    
Visibility 6 miles    
Events      
Averages and records for this station are not official NWS values.
T = Trace of Precipitation, MM = Missing Value Source: NWS Daily Summary

Daily Weather History Graph

Daily Weather History Graph

Search for Another Location

Airport or City:

Trip Planner

Search our weather history database for the weather conditions in past years. The results will help you decide how hot, cold, wet, or windy it might be!

Date:

Astronomy

Aug. 30, 2013 Rise Set
Actual Time 6:54 AM EDT 7:57 PM EDT
Civil Twilight 6:28 AM EDT 8:24 PM EDT
Nautical Twilight 5:56 AM EDT 8:56 PM EDT
Astronomical Twilight 5:22 AM EDT 9:29 PM EDT
Moon 1:36 AM EDT (8/30) 4:09 PM EDT (8/30)
Length of Visible Light 13h 56m
Length of Day
13h 02m
Waning Crescent, 29% of the Moon is Illuminated
Aug 30
Waning Crescent
Sep 5
New
Sep 12
First Quarter
Sep 19
Full
Sep 26
Last Quarter

Hourly Weather History & Observations

Time (EDT) Temp. Heat Index Dew Point Humidity Pressure Visibility Wind Dir Wind Speed Gust Speed Precip Events Conditions
12:15 AM 69.4 °F - 69.4 °F 100% 30.11 in 3.0 mi North - - N/A   Scattered Clouds
12:35 AM 69.4 °F - 69.4 °F 100% 30.11 in 4.0 mi North - - N/A   Clear
12:55 AM 70.7 °F - 70.7 °F 100% 30.11 in 3.0 mi North - - N/A   Mostly Cloudy
1:15 AM 70.7 °F - 70.7 °F 100% 30.11 in 1.8 mi North - - N/A   Overcast
1:35 AM 69.3 °F - 69.3 °F 100% 30.11 in 4.0 mi North - - N/A   Scattered Clouds
1:55 AM 69.1 °F - 69.1 °F 100% 30.10 in 3.0 mi North - - N/A   Mostly Cloudy
2:15 AM 68.4 °F - 68.4 °F 100% 30.10 in 3.0 mi North - - N/A   Mostly Cloudy
2:35 AM 68.0 °F - 68.0 °F 100% 30.10 in 2.0 mi North - - N/A   Scattered Clouds
2:55 AM 67.6 °F - 67.6 °F 100% 30.10 in 2.0 mi North - - N/A   Clear
3:15 AM 67.3 °F - 67.3 °F 100% 30.10 in 2.0 mi North - - N/A   Clear
3:35 AM 67.1 °F - 67.1 °F 100% 30.10 in 2.5 mi North - - N/A   Clear
3:55 AM 67.1 °F - 67.1 °F 100% 30.11 in 2.5 mi North - - N/A   Clear
4:15 AM 66.4 °F - 66.4 °F 100% 30.10 in 3.0 mi North - - N/A   Clear
4:35 AM 66.4 °F - 66.4 °F 100% 30.10 in 2.0 mi North - - N/A   Clear
4:55 AM 66.2 °F - 66.2 °F 100% 30.11 in 2.5 mi North - - N/A   Clear
5:15 AM 66.2 °F - 66.2 °F 100% 30.11 in 2.5 mi North - - N/A   Clear
5:35 AM 65.7 °F - 65.7 °F 100% 30.11 in 3.0 mi North - - N/A   Clear
5:55 AM 65.8 °F - 65.8 °F 100% 30.11 in 3.0 mi North - - N/A   Clear
6:15 AM 65.5 °F - 65.5 °F 100% 30.11 in 3.0 mi North - - N/A   Clear
6:35 AM 65.3 °F - 65.3 °F 100% 30.11 in 2.5 mi North - - N/A   Clear
6:55 AM 65.1 °F - 65.1 °F 100% 30.11 in 3.0 mi North - - N/A   Clear
7:15 AM 65.3 °F - 65.3 °F 100% 30.12 in 3.0 mi North - - N/A   Clear
7:35 AM 65.5 °F - 65.5 °F 100% 30.12 in 2.5 mi North - - N/A   Clear
7:55 AM 66.0 °F - 66.0 °F 100% 30.12 in 3.0 mi North - - N/A   Clear
8:15 AM 66.6 °F - 66.6 °F 100% 30.13 in 4.0 mi North - - N/A   Clear
8:35 AM 68.0 °F - 68.0 °F 100% 30.13 in 5.0 mi North - - N/A   Clear
8:55 AM 70.0 °F - 70.0 °F 100% 30.13 in 5.0 mi North - - N/A   Scattered Clouds
9:55 AM 76.3 °F - 70.7 °F 83% 30.12 in 10.0 mi North - - N/A   Scattered Clouds
10:15 AM 79.0 °F - 70.9 °F 76% 30.13 in 10.0 mi North - - N/A   Scattered Clouds
10:35 AM 80.1 °F 83.7 °F 71.6 °F 75% 30.13 in 10.0 mi North - - N/A   Scattered Clouds
10:55 AM 81.1 °F 85.4 °F 71.6 °F 73% 30.12 in 10.0 mi North - - N/A   Clear
11:15 AM 82.4 °F 87.4 °F 72.0 °F 71% 30.12 in 10.0 mi North - - N/A   Clear
11:35 AM - - - N/A% - - North - - N/A   Unknown
11:55 AM 83.3 °F 87.9 °F 70.9 °F 66% 30.11 in 10.0 mi North - - N/A   Scattered Clouds
12:15 PM 85.1 °F 91.1 °F 72.0 °F 65% 30.11 in 10.0 mi North - - N/A   Scattered Clouds
12:35 PM 84.9 °F 90.7 °F 72.0 °F 65% 30.10 in 10.0 mi North - - N/A   Scattered Clouds
12:55 PM 86.4 °F 92.2 °F 71.6 °F 61% 30.10 in 10.0 mi North - - N/A   Mostly Cloudy
1:15 PM 85.5 °F 91.5 °F 72.1 °F 64% 30.08 in 10.0 mi North - - N/A   Overcast
1:35 PM 84.7 °F 91.0 °F 72.9 °F 67% 30.08 in 10.0 mi North - - N/A   Mostly Cloudy
1:55 PM 86.9 °F 92.9 °F 71.4 °F 60% 30.07 in 10.0 mi North - - N/A   Mostly Cloudy
2:15 PM 84.6 °F 91.0 °F 73.0 °F 68% 30.07 in 10.0 mi North - - N/A   Mostly Cloudy
2:35 PM 86.5 °F 93.8 °F 73.2 °F 64% 30.06 in 10.0 mi North - - N/A   Mostly Cloudy
2:55 PM 87.1 °F 94.1 °F 72.7 °F 62% 30.06 in 10.0 mi North - - N/A   Mostly Cloudy
3:15 PM 85.5 °F 91.5 °F 72.1 °F 64% 30.05 in 10.0 mi North - - N/A   Mostly Cloudy
3:35 PM 88.7 °F 94.8 °F 71.1 °F 56% 30.04 in 10.0 mi North - - N/A   Scattered Clouds
3:55 PM 87.8 °F 93.0 °F 70.5 °F 56% 30.04 in 10.0 mi North - - N/A   Scattered Clouds
4:15 PM 87.4 °F 92.3 °F 70.0 °F 56% 30.03 in 10.0 mi North - - N/A   Scattered Clouds
4:35 PM 88.0 °F 91.4 °F 68.0 °F 51% 30.03 in 10.0 mi North - - N/A   Scattered Clouds
4:55 PM 86.7 °F 92.1 °F 70.7 °F 59% 30.03 in 10.0 mi North - - N/A   Scattered Clouds
5:15 PM 85.5 °F 92.2 °F 73.0 °F 66% 30.03 in 10.0 mi North - - N/A   Scattered Clouds
5:35 PM 86.2 °F 93.4 °F 73.0 °F 65% 30.03 in 10.0 mi North - - N/A   Clear
5:55 PM 85.3 °F 92.6 °F 73.8 °F 68% 30.02 in 10.0 mi North - - N/A   Clear
6:15 PM 81.9 °F 88.0 °F 74.5 °F 78% 30.02 in 10.0 mi North - - N/A   Clear
6:35 PM 79.0 °F - 74.8 °F 87% 30.02 in 10.0 mi North - - N/A   Clear
6:55 PM 77.5 °F - 74.1 °F 89% 30.02 in 10.0 mi North - - N/A   Clear
7:15 PM 76.6 °F - 73.9 °F 91% 30.02 in 10.0 mi North - - N/A   Clear
7:35 PM 75.6 °F - 73.4 °F 93% 30.02 in 7.0 mi North - - N/A   Clear
7:55 PM 74.3 °F - 72.7 °F 95% 30.02 in 7.0 mi North - - N/A   Clear
8:15 PM 73.6 °F - 72.1 °F 95% 30.02 in 7.0 mi North - - N/A   Clear
8:35 PM 72.7 °F - 71.8 °F 97% 30.02 in 7.0 mi North - - N/A   Clear
8:55 PM 72.1 °F - 71.4 °F 98% 30.02 in 7.0 mi North - - N/A   Clear
9:15 PM 71.6 °F - 70.9 °F 98% 30.03 in 5.0 mi North - - N/A   Clear
9:35 PM 70.9 °F - 70.5 °F 99% 30.03 in 5.0 mi North - - N/A   Clear
9:55 PM 70.7 °F - 70.5 °F 99% 30.02 in 4.0 mi North - - N/A   Clear
10:15 PM 69.8 °F - 69.8 °F 100% 30.03 in 4.0 mi North - - N/A   Clear
10:35 PM 69.8 °F - 69.8 °F 100% 30.03 in 4.0 mi North - - N/A   Clear
10:55 PM 69.8 °F - 69.8 °F 100% 30.03 in 4.0 mi North - - N/A   Clear
11:15 PM 69.3 °F - 69.3 °F 100% 30.04 in 3.0 mi North - - N/A   Clear
11:35 PM 68.9 °F - 68.9 °F 100% 30.03 in 4.0 mi North - - N/A   Clear
11:55 PM 68.7 °F - 68.7 °F 100% 30.03 in 3.0 mi North - - N/A   Scattered Clouds